Wind_Speed
14 12 10 8 7 6 5 4 2 2 3 5 6 6 6 7 8 9 9 9 9 9 9 9 9 9 9 8 8 8 9 8 8 7 7 7 7 7 7 7 6 6 6 5
16 13 12 11 10 7 6 5 3 2 1 4 5 4 5 4 6 8 8 8 9 9 9 9 9 9 8 8 8 7 7 8 7 7 6 6 6 5 6 7 6 6 6 6
16 14 14 15 12 10 8 6 5 4 4 5 6 3 4 4 5 7 7 8 8 8 8 8 9 9 8 8 7 7 6 7 7 7 6 5 5 5 6 6 6 6 6 6
18 17 17 17 14 11 9 7 6 6 6 6 5 2 3 3 4 5 7 7 7 7 8 8 8 8 8 8 7 7 6 6 6 6 6 5 6 6 6 5 6 6 5 5
18 18 18 16 14 12 10 9 9 8 9 7 5 4 3 4 4 4 5 6 7 7 7 7 7 8 8 8 7 7 6 5 6 6 6 6 6 5 5 4 4 5 5 5
19 18 18 16 15 14 13 12 11 10 10 8 7 7 5 5 5 4 5 5 6 6 6 6 6 7 7 7 7 6 6 5 5 5 6 6 6 5 5 4 4 4 4 5
19 18 18 17 17 16 16 15 14 12 11 9 8 8 6 4 4 5 5 4 5 6 6 6 6 6 6 6 6 5 5 4 4 4 5 5 5 5 4 4 4 4 4 5
21 19 19 19 18 16 16 16 15 13 10 9 10 11 9 5 4 5 5 3 4 5 6 6 6 6 5 5 5 5 5 4 3 3 3 4 4 4 4 4 4 4 4 5
21 20 19 19 17 17 16 15 15 13 12 13 14 13 10 8 6 6 5 4 3 5 5 5 6 6 5 5 5 5 4 4 4 3 3 3 4 4 4 4 4 4 5 5
20 20 20 19 18 18 17 16 16 16 15 15 15 13 10 8 8 7 6 6 5 5 5 5 5 5 5 6 5 5 5 5 5 4 4 4 4 5 5 5 5 6 6 6
21 21 21 21 22 20 19 18 19 19 19 18 17 15 12 10 9 9 8 7 7 7 6 7 6 6 6 6 6 6 6 6 6 6 5 5 6 6 7 7 7 8 8 8
23 22 22 23 22 21 20 20 19 21 20 20 19 16 14 12 11 11 11 9 8 9 8 8 8 8 7 8 8 7 7 7 7 7 7 8 8 8 8 9 9 9 9 9
24 25 24 24 24 23 22 21 20 20 20 20 20 17 14 13 13 12 12 10 9 9 9 9 9 10 10 10 10 10 8 8 8 9 9 9 10 9 10 10 10 10 10 10
27 27 27 27 25 25 24 23 22 22 21 20 19 17 15 15 14 13 12 12 11 11 11 11 11 11 12 13 13 12 11 11 11 11 11 11 11 11 11 11 11 11 11 11
31 31 30 29 28 28 26 25 24 24 22 22 20 19 17 16 15 15 15 15 14 14 14 14 14 13 14 16 16 16 15 14 13 13 13 13 13 13 13 13 13 13 13 13
33 33 32 31 30 29 28 26 25 25 24 24 22 20 17 17 17 18 18 18 16 16 17 17 16 16 17 17 18 18 18 17 16 15 14 15 15 15 15 15 14 14 14 15
31 32 33 32 31 30 30 27 26 27 26 25 24 22 20 20 20 20 20 20 20 19 20 19 19 18 19 18 18 19 19 19 19 17 17 16 16 17 16 16 16 16 16 16
33 33 33 33 32 33 31 29 28 28 28 27 26 24 23 22 23 22 21 21 21 21 20 21 20 20 20 20 19 20 21 21 21 20 18 18 18 18 18 19 19 19 18 18
34 34 34 34 34 34 33 31 30 30 30 28 28 26 25 24 24 24 24 23 23 23 23 23 23 23 23 22 22 22 22 22 22 22 21 20 20 20 20 20 20 20 20 21
35 35 35 36 36 36 33 31 31 31 31 30 30 29 28 28 26 26 27 26 25 25 25 25 25 25 24 24 24 24 24 23 23 23 22 23 23 22 22 21 21 22 22 23
35 36 36 36 37 37 34 32 31 32 31 31 31 31 30 30 29 28 29 28 27 26 26 27 26 26 26 25 25 25 24 24 24 24 23 24 25 25 24 24 24 24 25 25
34 35 36 36 37 36 34 32 32 31 31 31 31 31 30 30 30 28 28 29 28 28 28 28 28 28 27 26 25 25 25 26 25 25 25 26 27 27 27 27 27 27 27 28
36 35 35 36 35 34 34 34 33 33 33 32 31 31 31 30 30 29 29 30 30 31 30 30 29 29 29 28 28 27 27 27 27 27 28 28 29 29 29 29 30 29 29 29
36 36 36 36 36 34 34 34 34 33 32 31 31 32 32 32 31 31 31 31 32 32 32 31 31 31 31 31 31 30 30 31 30 30 30 30 31 31 32 32 32 31 31 31
35 35 36 37 36 35 34 33 33 33 33 33 33 34 33 33 33 33 33 33 33 34 33 32 32 32 32 31 31 32 32 32 32 32 32 32 32 33 33 33 33 32 32 32
36 36 36 36 36 34 34 33 33 34 34 35 35 35 35 36 35 34 34 34 35 35 34 32 32 32 32 32 32 32 32 33 33 33 33 33 33 33 33 33 33 33 33 33
Wind_Direction
194 187 183 177 170 170 178 171 156 77 30 356 4 10 15 28 36 41 39 41 41 41 40 39 38 40 45 46 46 49 48 49 55 58 59 62 65 64 63 63 68 68 66 60
200 192 189 186 187 190 186 200 216 202 283 318 333 343 354 20 32 40 41 39 41 40 37 35 35 34 37 41 42 47 47 45 51 53 55 62 66 63 59 61 67 70 64 60
204 195 195 192 194 195 200 216 224 233 250 272 289 310 351 15 20 38 39 37 42 36 34 33 32 32 34 38 39 43 47 44 45 47 52 62 68 65 61 62 65 66 60 54
204 197 197 196 196 202 206 211 218 227 239 255 270 297 352 4 14 27 32 33 35 31 27 27 29 32 32 29 31 34 40 41 40 45 51 57 60 61 55 57 58 57 52 47
202 201 203 204 202 203 204 213 218 226 226 242 254 273 320 322 347 11 28 26 22 18 20 22 24 27 24 23 24 24 28 30 31 40 47 49 52 53 49 47 45 45 45 40
206 205 209 208 207 206 207 210 214 222 231 238 248 267 289 310 346 354 7 16 15 14 18 16 12 13 14 16 19 19 22 28 33 36 41 46 49 52 50 46 36 37 34 28
209 209 212 214 212 208 207 211 214 222 232 235 240 257 276 298 334 341 347 355 358 4 6 6 3 5 9 11 11 17 21 25 28 32 36 39 41 44 41 32 25 23 16 11
212 211 212 216 215 212 208 214 220 224 228 237 241 254 262 271 306 309 313 317 336 342 347 349 348 350 357 2 1 5 11 14 13 16 21 27 29 29 25 20 14 6 353 348
213 212 211 218 217 217 214 221 225 228 236 246 252 259 255 259 273 282 285 286 315 326 329 332 332 335 339 343 339 342 351 355 355 348 350 357 3 3 0 355 349 343 335 337
216 215 211 212 216 217 220 224 228 235 239 248 254 259 260 265 267 273 280 288 297 309 310 309 318 321 322 326 323 326 332 335 334 331 330 332 334 334 333 330 328 323 320 322
221 220 212 211 212 215 219 223 228 235 245 252 256 259 257 256 262 271 274 285 288 290 295 296 302 306 309 311 314 320 322 322 322 319 317 318 313 313 313 314 317 313 309 311
220 221 219 217 215 218 223 224 227 234 241 250 256 260 262 256 260 268 274 277 278 283 286 294 296 299 299 299 298 299 308 313 315 314 313 309 303 302 302 302 305 310 308 305
220 223 224 221 218 218 223 226 229 235 240 248 254 259 260 263 263 266 272 276 279 282 284 286 289 292 292 293 291 287 290 298 303 306 307 305 298 295 296 297 298 301 302 303
223 225 225 224 222 223 226 229 230 235 239 245 252 259 258 264 267 265 267 271 276 281 281 283 284 282 285 286 288 284 286 289 292 296 297 298 295 289 289 290 292 292 294 293
226 227 227 225 226 228 230 231 231 234 239 244 251 257 261 264 267 266 267 267 270 273 273 276 276 274 275 279 282 282 282 284 288 291 291 291 293 292 289 286 287 287 288 286
228 228 228 227 228 230 232 232 234 238 242 247 249 253 258 260 261 265 265 266 267 272 272 270 270 274 271 272 276 278 280 280 281 284 286 286 289 289 292 289 289 287 286 284
232 231 228 226 229 231 234 236 236 239 245 248 248 250 253 255 260 264 265 264 266 268 269 271 270 275 276 271 271 273 273 277 279 280 281 281 282 284 285 287 289 289 288 286
234 232 231 230 230 232 234 236 238 240 244 249 250 252 255 257 262 264 265 266 268 269 269 272 275 276 276 273 273 272 273 274 276 277 277 277 280 282 282 284 285 286 285 284
233 233 233 233 233 234 233 236 239 242 246 249 252 253 254 259 262 264 266 268 270 269 271 272 274 275 276 276 275 274 274 276 276 274 274 277 278 280 281 282 282 282 283 282
232 233 234 234 235 237 236 238 241 244 248 251 253 255 257 260 262 264 267 269 268 266 267 269 271 273 274 274 274 274 273 274 274 273 272 275 276 278 280 280 282 281 281 280
234 235 235 236 238 239 239 242 244 245 248 250 253 254 257 260 263 266 267 267 266 265 266 268 269 270 271 271 272 272 272 272 273 272 270 272 274 276 277 278 281 281 280 280
236 236 236 238 240 241 241 242 244 247 248 250 253 256 257 260 263 264 266 268 267 267 268 269 269 269 269 269 269 271 273 273 272 271 268 269 271 273 275 276 278 279 279 280
236 238 239 241 243 243 241 243 244 245 246 249 252 256 258 260 261 263 263 264 266 268 269 269 270 271 271 271 269 270 272 274 272 272 269 268 269 272 274 275 276 278 278 279
238 240 242 243 244 244 243 243 244 245 247 249 252 254 258 259 261 264 264 264 265 266 268 269 269 270 271 271 273 273 274 274 273 272 271 270 269 271 273 274 275 277 279 280
238 241 244 245 245 245 246 245 244 245 247 250 253 255 257 261 262 264 264 266 267 268 270 269 268 269 270 272 273 273 274 274 273 272 271 270 270 272 272 273 274 275 277 280
239 242 244 246 247 249 248 247 247 247 250 252 254 258 259 263 264 264 265 268 270 271 271 269 269 270 271 272 272 272 274 274 273 272 272 271 270 270 270 271 272 274 276 278
Height
5909 5912 5913 5914 5915 5916 5917 5917 5917 5918 5918 5917 5917 5916 5916 5915 5915 5914 5913 5912 5911 5910 5909 5908 5907 5906 5905 5904 5903 5902 5901 5900 5899 5898 5897 5897 5896 5896 5895 5895 5894 5894 5893 5892
5908 5910 5912 5912 5913 5914 5916 5916 5917 5917 5918 5917 5917 5917 5916 5915 5915 5915 5913 5912 5911 5911 5910 5909 5908 5907 5905 5905 5904 5903 5902 5901 5899 5898 5898 5897 5897 5897 5896 5895 5895 5894 5893 5893
5905 5908 5909 5910 5911 5913 5914 5915 5916 5917 5917 5917 5917 5916 5915 5915 5915 5915 5914 5913 5912 5911 5911 5910 5909 5907 5906 5905 5905 5904 5903 5902 5900 5899 5898 5898 5898 5897 5897 5896 5895 5895 5894 5893
5902 5904 5906 5907 5909 5911 5912 5913 5914 5915 5916 5916 5916 5915 5915 5915 5914 5914 5914 5913 5912 5912 5911 5910 5909 5908 5907 5906 5905 5904 5903 5902 5901 5900 5899 5899 5898 5898 5897 5897 5896 5895 5894 5893
5898 5901 5902 5904 5907 5909 5910 5910 5911 5912 5913 5914 5914 5914 5915 5914 5914 5914 5913 5913 5912 5912 5911 5910 5910 5909 5907 5906 5905 5904 5904 5903 5902 5901 5900 5899 5899 5898 5897 5897 5896 5896 5895 5894
5895 5897 5899 5902 5904 5906 5908 5908 5909 5910 5911 5912 5913 5913 5914 5913 5913 5913 5913 5912 5912 5912 5911 5910 5909 5909 5908 5907 5906 5905 5904 5903 5902 5901 5901 5900 5899 5899 5898 5897 5896 5896 5895 5894
5892 5894 5896 5899 5901 5903 5905 5906 5907 5908 5908 5910 5911 5911 5912 5912 5912 5911 5911 5912 5911 5911 5910 5909 5909 5908 5908 5907 5906 5905 5904 5903 5902 5901 5901 5900 5900 5899 5898 5897 5897 5896 5895 5894
5888 5891 5893 5895 5898 5900 5901 5903 5905 5906 5906 5908 5908 5908 5911 5910 5909 5909 5909 5910 5910 5910 5909 5908 5908 5907 5907 5906 5905 5904 5904 5903 5902 5901 5901 5900 5900 5899 5898 5898 5897 5896 5895 5894
5883 5887 5890 5892 5895 5897 5898 5900 5901 5903 5903 5905 5905 5907 5908 5907 5907 5907 5907 5908 5908 5908 5908 5907 5907 5906 5906 5905 5905 5904 5903 5902 5902 5901 5900 5900 5899 5899 5898 5897 5896 5895 5894 5893
5879 5883 5886 5889 5891 5893 5896 5897 5899 5900 5900 5901 5902 5903 5905 5904 5904 5905 5905 5905 5906 5906 5906 5905 5905 5905 5904 5904 5903 5903 5902 5901 5901 5900 5900 5899 5898 5897 5897 5896 5895 5894 5893 5892
5875 5878 5882 5884 5886 5889 5892 5893 5894 5896 5897 5898 5898 5901 5901 5902 5901 5902 5902 5902 5903 5904 5904 5903 5903 5903 5903 5903 5902 5901 5901 5900 5899 5899 5898 5898 5897 5896 5895 5894 5893 5892 5891 5890
5870 5873 5876 5880 5883 5885 5887 5889 5891 5893 5894 5894 5895 5899 5897 5898 5898 5898 5898 5898 5899 5900 5900 5900 5901 5901 5901 5901 5900 5899 5899 5898 5898 5897 5896 5896 5895 5894 5893 5892 5891 5890 5889 5888
5865 5868 5872 5875 5879 5881 5882 5884 5886 5888 5890 5890 5891 5895 5893 5894 5894 5894 5895 5895 5895 5896 5897 5898 5898 5898 5898 5898 5897 5897 5897 5896 5896 5895 5894 5893 5892 5891 5890 5889 5888 5887 5886 5885
5861 5863 5867 5870 5873 5875 5877 5879 5881 5883 5885 5886 5887 5889 5890 5890 5890 5890 5891 5891 5892 5893 5894 5894 5895 5895 5894 5895 5894 5893 5893 5893 5893 5892 5891 5890 5889 5888 5887 5886 5886 5885 5883 5882
5854 5857 5860 5864 5867 5869 5871 5874 5876 5878 5880 5882 5883 5884 5886 5886 5886 5886 5887 5887 5888 5889 5890 5890 5891 5891 5891 5891 5890 5890 5890 5890 5889 5889 5888 5887 5886 5884 5883 5883 5882 5881 5880 5878
5848 5851 5854 5858 5861 5863 5866 5868 5871 5873 5875 5876 5878 5880 5881 5881 5881 5881 5882 5883 5883 5885 5885 5886 5886 5887 5887 5887 5886 5886 5885 5885 5885 5884 5883 5883 5882 5881 5879 5878 5878 5877 5876 5874
5841 5844 5848 5851 5854 5857 5860 5863 5865 5867 5868 5870 5872 5875 5876 5876 5876 5877 5878 5878 5879 5880 5881 5881 5881 5881 5882 5882 5881 5881 5880 5880 5879 5879 5878 5878 5877 5876 5875 5874 5873 5872 5871 5870
5835 5838 5841 5844 5848 5850 5855 5857 5859 5860 5862 5864 5866 5869 5870 5871 5871 5871 5872 5873 5874 5874 5875 5875 5875 5875 5875 5875 5875 5874 5874 5874 5873 5873 5872 5872 5872 5871 5870 5869 5868 5867 5865 5864
5827 5830 5833 5837 5839 5842 5846 5849 5852 5854 5855 5858 5859 5861 5863 5864 5865 5866 5866 5867 5868 5868 5869 5869 5869 5869 5868 5868 5868 5868 5867 5867 5866 5866 5866 5866 5866 5865 5864 5863 5862 5861 5859 5858
5819 5822 5826 5828 5831 5834 5840 5843 5845 5847 5848 5851 5853 5855 5856 5857 5858 5860 5860 5861 5861 5861 5862 5862 5862 5862 5861 5861 5861 5860 5860 5860 5859 5859 5859 5859 5859 5859 5858 5857 5856 5854 5853 5852
5811 5814 5817 5820 5823 5826 5832 5835 5837 5840 5843 5844 5846 5848 5849 5850 5851 5853 5853 5854 5854 5854 5854 5854 5855 5854 5854 5853 5853 5852 5852 5852 5852 5851 5851 5852 5851 5851 5851 5850 5849 5847 5846 5844
5803 5806 5809 5812 5815 5821 5824 5827 5829 5832 5834 5836 5838 5840 5842 5843 5844 5844 5845 5846 5846 5846 5846 5846 5846 5846 5845 5845 5845 5844 5844 5844 5844 5844 5843 5844 5843 5843 5843 5842 5841 5840 5838 5837
5794 5799 5802 5805 5809 5813 5816 5818 5821 5823 5825 5827 5829 5831 5833 5835 5836 5837 5837 5838 5838 5838 5838 5838 5838 5838 5837 5837 5837 5836 5836 5836 5836 5835 5835 5835 5834 5834 5834 5833 5832 5831 5830 5829
5787 5790 5793 5796 5800 5804 5807 5809 5812 5814 5817 5819 5821 5823 5825 5826 5827 5828 5829 5829 5829 5829 5828 5828 5829 5829 5829 5829 5828 5828 5827 5827 5827 5826 5826 5825 5825 5825 5824 5823 5822 5821 5821 5820
5779 5781 5784 5787 5791 5794 5797 5800 5803 5805 5808 5810 5812 5814 5815 5816 5817 5818 5819 5819 5820 5819 5819 5820 5819 5820 5820 5819 5819 5818 5817 5817 5817 5816 5816 5815 5815 5815 5814 5813 5813 5812 5811 5810
5771 5773 5776 5779 5783 5785 5788 5790 5793 5795 5798 5800 5803 5804 5805 5806 5807 5808 5809 5810 5810 5810 5810 5810 5809 5809 5809 5809 5809 5808 5807 5806 5806 5806 5805 5805 5805 5804 5803 5803 5802 5801 5801 5800